Find Starlink 30809

NORAD ID: 58183 Int'l Des: 2023-167 Owner: SPXS Country: US Constellation: starlink operational
LEOCIRCULAR

Current View

Loading 3D Globe...

About Starlink 30809

Starlink 30809 (NORAD 58183) is a starlink constellation satellite (v2 mini) launched Oct 30, 2023 by SPXS of US. It operates in LEO, CIRCULAR orbit with a mass of 730.00 kg.

About Starlink 30809

Description loading...

Upcoming Passes

Passes for default location (London). Set your location on the main map for personalized predictions.

Altitude History

Loading altitude history...

Two-Line Element Set

1 58183U 23167J 26169.40227168 -.00000470 00000-0 -75377-5 0 9995
2 58183 42.9998 294.9805 0001440 254.8062 105.2630 15.27579441146385
Epoch: Jun 18, 2026 • Age: 22 hours

Current Status

Altitude 482.6 km
Velocity 7.63 km/s
Sub-Earth Point 4.88°N, 87.36°W
Launch Date Oct 30, 2023
Age 2.6 years
Type internet

Technical Details

Classification Payload
Mass 730.00 kg
Dry Mass 700.00 kg
Total Mass 730.00 kg
Length 0.30 m
Diameter 4.10 m
Span 29.00 m
Shape Box + pan
Manufacturer SPXS
Bus Type Starlink V2M
Phase Status In Orbit
Owner/State SPXS/US

Most Searched